GFSFLT2_700_spd_000.txt.gz
Wind_Speed
15 14 14 16 17 18 19 22 23 23 23 23 23 21 19 18 18 16 15 14 15 12 10 12 16 19 18 15 18 17 33 40
16 13 15 17 17 17 20 22 22 19 18 17 17 16 15 14 14 12 12 12 13 12 9 10 13 17 18 18 16 16 24 31
17 20 20 20 22 24 24 19 16 15 12 18 17 15 14 13 13 13 12 12 9 10 12 14 16 13 15 15 14 13 20 27
22 25 23 25 26 23 15 16 14 14 14 15 15 15 15 15 16 16 16 15 14 12 13 15 15 11 11 11 13 16 19 25
20 20 20 21 22 16 17 18 17 17 18 19 18 17 17 17 18 18 19 19 19 19 17 14 14 13 14 18 22 24 26 28
18 18 21 21 16 13 17 19 19 19 19 21 21 21 21 21 21 21 20 20 20 21 21 20 17 16 15 14 16 24 27 25
19 19 20 19 17 17 20 22 23 24 24 25 26 27 27 26 25 26 25 25 25 25 25 25 23 20 20 19 18 17 21 24
21 21 20 21 20 20 23 25 28 27 27 28 29 30 31 32 31 30 28 28 27 28 29 29 28 26 24 24 22 21 19 21
20 22 20 21 23 23 25 27 28 27 28 29 31 33 34 34 34 32 31 31 30 30 30 30 30 29 28 28 27 24 24 20
25 25 22 22 22 25 27 25 27 29 29 30 30 31 33 33 33 31 31 30 29 30 31 30 31 31 32 32 31 30 28 29
26 27 27 25 24 24 28 29 28 26 25 24 26 27 27 27 27 29 30 31 30 30 31 32 32 33 33 33 34 34 34 35
26 28 28 26 27 27 25 25 26 26 26 24 21 22 25 27 29 30 31 31 30 31 32 32 31 32 34 35 34 34 35 36
22 25 25 24 23 26 28 28 27 27 27 28 29 26 24 26 29 29 30 31 32 30 29 28 30 32 32 31 31 32 32 34
26 24 20 22 32 29 32 33 30 29 27 29 31 32 31 31 31 30 32 35 36 34 33 36 36 37 35 35 37 34 30 27
32 36 27 28 38 37 43 40 35 31 29 31 33 36 36 36 35 31 33 35 37 38 42 41 39 41 41 41 44 40 37 31
39 41 34 34 40 40 43 46 44 37 34 35 37 39 40 39 39 39 38 40 42 45 46 44 42 43 46 47 46 42 40 44
37 39 36 35 33 38 46 50 44 42 38 37 41 45 45 41 39 41 44 45 47 45 42 45 46 42 53 53 45 41 36 39
38 38 39 36 34 37 48 42 41 40 37 38 42 49 48 46 43 44 46 45 50 51 51 49 47 53 59 52 42 37 39 40
33 33 32 37 37 46 41 37 38 37 38 41 42 45 53 50 46 49 49 52 51 53 52 59 54 57 56 52 41 40 39 40
30 37 34 36 48 51 42 40 41 40 41 44 45 39 48 51 49 52 53 52 55 59 61 58 52 49 53 47 45 41 39 39

GFSFLT2_700_spd_003.txt.gz
Wind_Speed
13 14 14 17 18 19 21 21 21 20 18 17 17 15 13 10 10 9 7 7 6 5 4 4 6 10 14 18 20 23 24 24
8 8 12 15 16 18 18 13 13 11 9 11 13 13 13 12 12 11 10 10 9 7 7 8 11 12 12 16 17 21 24 23
7 9 14 15 18 20 13 11 9 10 8 8 9 11 12 12 11 12 12 12 10 11 13 13 15 16 15 11 15 18 20 21
10 16 20 21 23 21 8 11 13 13 13 13 15 14 14 14 16 16 16 15 13 13 14 17 17 16 16 16 13 14 13 16
15 19 23 23 23 18 12 12 14 16 16 16 17 18 19 18 19 19 19 18 18 17 17 16 19 19 18 18 19 20 24 25
17 20 22 22 21 18 16 17 19 20 21 20 20 21 22 24 24 23 23 23 22 22 22 21 21 21 21 21 20 20 22 23
16 17 19 18 19 20 20 22 23 24 24 22 22 23 25 26 26 26 27 27 27 26 25 25 25 25 25 24 24 24 24 23
13 17 21 20 21 22 22 24 26 26 25 27 28 27 27 28 29 29 28 28 27 27 27 28 28 28 27 27 27 27 28 27
16 20 23 23 24 24 23 24 26 29 30 29 29 30 30 30 30 29 28 27 26 26 27 28 29 29 29 29 29 30 30 31
16 20 24 26 26 25 25 26 26 25 25 26 27 28 28 28 27 27 27 26 26 26 27 27 28 29 29 31 32 32 33 34
16 20 24 26 24 22 22 23 24 25 26 26 25 26 27 27 27 29 31 31 29 28 28 28 29 31 31 31 32 33 34 37
17 16 23 25 18 22 24 24 27 28 29 27 25 25 26 27 28 29 31 29 27 26 26 27 27 28 28 29 32 34 35 33
17 17 25 28 29 31 31 32 29 31 32 32 30 27 27 28 29 29 30 31 30 29 28 27 26 27 29 31 29 30 30 33
15 21 28 28 29 32 35 38 34 36 34 31 31 32 32 31 31 32 33 35 35 35 34 33 32 32 34 37 34 30 30 30
21 27 32 34 33 35 36 41 38 41 35 31 32 34 36 37 38 39 40 40 38 38 38 38 36 37 38 40 43 43 40 36
32 33 35 38 37 41 40 42 41 47 42 36 35 35 36 37 39 42 46 46 41 42 43 43 42 43 42 42 44 46 45 47
33 35 36 35 37 38 39 42 42 50 44 42 40 40 42 42 41 45 45 42 47 40 43 42 45 48 48 47 48 49 45 49
35 36 36 39 39 39 38 44 50 50 43 43 45 44 43 44 45 44 49 46 53 43 47 52 52 50 56 51 52 52 50 49
32 35 36 38 41 43 47 49 45 43 45 45 44 45 47 46 45 42 51 55 56 53 55 59 59 62 61 54 56 52 47 49
36 37 37 42 48 52 47 45 45 45 46 47 49 50 48 48 45 40 51 52 55 54 63 67 64 62 54 49 49 51 49 47

GFSFLT2_700_spd_006.txt.gz
Wind_Speed
6 4 8 10 10 12 14 12 10 9 6 4 7 9 6 4 2 3 6 9 9 7 7 5 5 9 14 20 23 25 27 27
2 5 7 9 11 14 13 8 7 9 8 7 10 11 12 11 9 8 8 9 8 7 6 8 9 10 12 14 21 23 26 28
2 4 8 11 14 15 9 6 7 8 7 8 9 11 11 12 11 12 13 14 13 13 12 13 13 14 14 15 14 17 21 23
5 12 17 17 17 16 11 9 10 12 11 11 11 12 12 12 13 14 15 15 15 16 16 16 17 16 15 15 15 16 17 19
10 15 15 16 16 14 14 14 15 15 16 16 16 15 16 17 18 19 19 19 20 20 20 19 19 20 20 19 18 18 17 19
13 12 16 18 18 18 18 17 18 20 20 20 19 19 20 21 22 23 24 25 25 25 25 24 24 23 23 22 22 22 21 21
10 12 16 18 20 22 21 20 21 23 24 24 23 24 25 26 26 26 27 27 27 27 27 27 27 27 27 26 26 26 26 26
10 14 18 21 23 23 21 21 22 23 24 25 26 26 27 28 29 29 29 29 28 28 28 28 28 29 29 29 29 29 30 30
10 14 18 23 25 25 22 20 22 23 24 25 26 28 28 28 29 29 29 29 29 28 27 28 29 29 29 30 30 31 32 33
11 15 17 19 22 19 18 20 21 24 25 25 26 29 30 30 30 30 30 29 29 28 29 29 30 30 30 30 30 32 33 35
15 16 16 19 21 20 24 26 26 33 28 28 27 26 28 29 30 30 31 31 32 32 32 31 31 31 31 31 32 32 34 35
17 19 17 21 26 25 29 28 31 32 32 34 35 29 28 29 29 29 30 29 28 29 30 31 31 31 31 31 31 30 32 33
18 18 22 26 29 28 27 29 30 30 31 32 34 31 30 29 30 31 33 34 31 30 29 29 29 29 31 31 31 33 33 32
14 15 21 27 30 33 32 31 31 31 34 35 37 36 35 35 35 35 36 38 37 37 38 37 37 34 32 30 34 34 34 34
17 22 27 28 30 31 33 35 38 39 39 41 45 43 36 39 41 42 42 42 42 41 43 44 41 41 41 37 38 37 34 37
25 25 26 29 32 34 36 39 41 43 45 48 48 39 38 40 45 46 45 44 44 41 44 46 45 48 45 46 43 45 45 42
25 26 29 33 33 35 38 40 44 51 49 45 44 45 44 45 46 48 49 48 48 44 48 47 50 50 48 49 49 49 51 52
27 27 30 33 34 36 39 45 48 45 45 46 46 47 47 48 49 51 52 53 52 50 54 54 56 56 56 55 56 56 57 58
28 30 33 36 36 41 45 42 42 44 46 47 45 46 48 49 50 51 53 52 51 48 50 58 59 58 64 61 59 63 62 61
31 34 36 38 42 40 40 45 47 46 43 46 50 50 50 49 50 48 45 40 36 36 45 60 62 68 60 52 50 50 48 50

GFSFLT2_700_spd_009.txt.gz
Wind_Speed
1 0 4 5 6 7 9 4 5 6 4 1 3 5 5 6 5 5 6 7 7 7 8 7 8 8 10 12 16 21 23 25
2 3 3 4 6 9 8 3 4 6 5 5 6 6 7 7 7 8 9 10 11 10 10 11 11 13 13 13 15 16 21 24
2 1 6 9 10 10 7 5 7 8 10 10 11 11 11 11 11 12 12 14 14 14 15 16 16 16 16 16 15 14 15 17
1 2 8 11 12 11 9 5 7 9 11 12 13 13 13 14 15 16 18 18 18 18 17 18 19 20 21 20 19 18 16 17
4 9 12 14 14 13 12 11 11 12 14 15 16 16 16 17 18 20 22 23 23 23 23 23 23 24 25 24 23 22 21 20
7 10 13 15 17 17 16 14 13 14 16 17 18 19 21 22 23 24 26 27 28 29 29 28 27 28 28 27 27 26 25 25
5 8 11 14 15 16 16 15 14 16 18 21 22 23 23 24 26 27 27 29 30 31 31 31 30 30 30 30 30 29 29 29
2 5 9 13 14 16 15 15 18 20 23 25 22 22 23 24 26 27 28 29 30 30 30 30 30 31 32 32 32 33 33 33
5 7 10 12 14 19 19 22 21 21 24 26 25 26 27 27 26 26 27 28 29 29 29 29 29 29 30 31 33 33 35 36
7 10 14 15 16 20 20 21 19 20 21 23 24 26 26 26 26 26 27 27 28 29 29 29 30 31 32 32 33 34 36 37
11 13 15 19 22 24 24 24 22 22 24 24 27 28 29 29 27 26 27 27 28 29 30 31 32 32 31 31 32 34 35 37
14 17 18 20 24 25 24 23 23 24 26 26 30 32 33 34 30 31 32 33 32 32 33 33 33 32 33 32 32 33 34 35
10 13 16 17 21 24 25 25 24 25 28 30 32 35 37 39 36 31 32 36 36 37 38 39 39 35 37 35 34 34 36 36
6 11 14 18 22 25 28 30 30 31 33 36 39 42 41 41 40 39 38 39 40 40 41 44 43 42 42 43 43 42 40 36
9 12 16 21 25 27 29 32 35 37 37 39 42 41 39 39 40 41 42 44 46 45 45 45 47 46 44 45 48 48 44 43
14 17 22 26 29 31 33 36 37 39 43 47 43 42 44 45 42 41 41 44 46 48 49 49 49 51 51 51 54 52 50 46
17 22 26 29 32 35 38 40 41 44 48 44 43 46 46 42 42 46 48 47 48 51 54 55 53 51 56 57 61 56 54 53
25 29 31 34 37 40 41 45 48 49 44 45 46 43 43 47 47 48 47 50 52 52 53 56 56 54 55 59 63 59 60 62
30 32 35 38 41 45 47 49 50 47 45 42 46 49 50 51 51 52 52 52 55 53 49 47 45 44 48 53 57 68 59 65
36 35 37 44 48 49 45 41 41 41 39 43 49 52 52 52 54 56 54 52 46 41 36 35 33 36 41 50 51 46 39 41

GFSFLT2_700_spd_015.txt.gz
Wind_Speed
8 9 8 8 7 7 8 3 4 5 7 7 9 12 14 15 16 15 15 16 16 17 18 18 18 17 16 16 16 14 14 18
9 7 6 6 5 6 5 5 6 8 9 10 11 13 16 18 18 18 19 19 20 20 21 21 21 21 21 20 19 20 18 18
4 3 4 3 3 3 4 5 7 9 10 12 14 16 18 21 19 22 23 24 24 25 25 25 25 25 24 23 22 23 21 22
6 4 3 1 2 4 6 6 8 9 11 12 14 15 17 19 21 22 24 25 27 28 28 28 29 29 31 28 26 27 25 26
5 6 4 1 3 6 6 7 6 7 6 8 11 14 16 18 20 23 24 26 26 28 30 29 29 29 29 31 31 30 29 29
6 6 3 0 4 6 7 7 8 10 12 13 16 18 20 20 22 23 25 28 29 29 28 30 29 29 30 30 31 30 30 31
7 6 4 4 4 4 7 9 12 14 16 19 20 21 21 22 23 24 25 26 27 27 28 29 30 30 30 29 29 29 29 28
10 8 8 9 10 10 13 14 16 19 21 22 23 23 25 23 22 23 22 23 25 26 26 26 26 27 28 30 30 30 31 31
13 11 14 14 15 17 17 18 19 21 25 26 25 25 24 24 25 24 23 23 25 27 27 27 27 27 29 31 32 32 32 32
13 15 17 18 20 20 20 22 22 23 25 26 24 23 24 24 24 25 26 25 26 29 31 32 32 32 35 36 34 35 37 37
15 19 18 22 25 23 23 23 21 22 24 25 29 28 30 30 31 30 32 31 31 32 30 33 35 36 38 37 40 41 39 39
19 21 22 24 25 23 23 23 25 28 30 31 33 33 35 37 38 39 38 40 37 37 37 35 35 35 36 40 40 42 45 45
17 17 19 21 23 22 24 25 29 32 35 39 38 40 42 44 44 46 47 48 41 40 37 36 35 35 41 41 40 40 45 46
14 15 16 19 23 24 26 29 32 35 38 41 41 45 44 47 50 52 53 49 45 40 36 37 39 39 42 45 50 48 45 44
19 22 23 22 25 29 31 33 36 38 40 42 43 46 51 53 53 53 49 44 42 40 41 43 43 41 43 46 47 50 45 36
23 24 24 25 29 33 34 37 40 41 44 49 53 55 53 49 48 49 49 44 46 47 43 44 48 49 49 50 49 50 50 52
26 27 29 30 33 35 38 42 45 46 51 55 52 52 51 50 48 48 45 46 48 46 51 54 55 57 57 58 58 56 52 56
25 27 30 33 33 39 44 47 50 50 50 51 51 51 51 50 50 50 50 51 51 59 59 58 59 60 59 58 57 57 53 54
27 27 30 38 44 45 47 49 47 47 47 48 49 51 51 51 51 51 51 56 63 63 61 59 59 50 49 47 44 45 46 47
32 33 33 39 44 46 45 45 46 47 47 46 47 47 46 47 50 55 59 57 52 51 46 41 39 42 38 36 37 39 40 43